Date String (YYYY-MM-DD hh:mm:ss) UTC,Instrument flags,Ambient pressure (hPa),Sample flow (lpm),Bypass flow (lpm),Sample temperature (°C),Ambient temperature (°C),ASC tube jacket temperature (°C),LED temperature (°C),Box temperature (°C),Sample RH (%),Span deviation,Mass concentration (μg/m³),Mass concentration (μg/m³),Mass concentration (μg/m³)
DateTimeUTC,F1_M11,P_M11,Q1_M11,Q2_M11,T1_M11,T2_M11,T3_M11,T4_M11,T5_M11,U1_M11,ZSPAN_M11,X0_M11,X2_M11,X1_M11
2021-11-02 16:00:00,,0831.5,5.00,0.00,23.2,22.4,00.0,32.2,25.0,21.4,-000.5,0016.64,0010.12,0009.19
2021-11-02 16:01:00,,0831.6,4.99,0.00,23.2,22.4,00.0,32.2,25.0,21.4,-000.5,0017.36,0010.09,0009.17
2021-11-02 16:02:00,,0831.5,5.00,0.00,23.2,22.4,00.0,32.2,25.0,21.4,-000.7,0017.41,0010.06,0009.13
2021-11-02 16:03:00,,0831.6,4.99,0.00,23.2,22.4,00.0,32.2,25.0,21.4,-000.7,0017.11,0010.08,0009.15
2021-11-02 16:04:00,,0831.5,5.00,0.00,23.2,22.4,00.0,32.2,25.0,21.4,-000.6,0016.58,0010.07,0009.17
2021-11-02 16:05:00,,0831.5,5.00,0.00,23.2,22.4,00.0,32.2,25.0,21.4,-000.8,0016.50,0010.07,0009.19
2021-11-02 16:06:00,,0831.5,5.01,0.00,23.2,22.4,00.0,32.2,25.0,21.4,-000.5,0016.40,0010.08,0009.20
2021-11-02 16:07:00,,0831.5,5.00,0.00,23.2,22.4,00.0,32.2,25.0,21.4,-000.9,0016.27,0010.10,0009.23
2021-11-02 16:08:00,,0831.5,4.99,0.00,23.2,22.4,00.0,32.2,25.0,21.4,-001.1,0016.16,0010.15,0009.27
2021-11-02 16:09:00,,0831.5,5.01,0.00,23.2,22.4,00.0,32.2,25.0,21.3,-001.3,0016.10,0010.18,0009.29
2021-11-02 16:10:00,,0831.4,4.99,0.00,23.2,22.4,00.0,32.2,25.0,21.3,-001.5,0015.66,0010.20,0009.30
2021-11-02 16:11:00,,0831.5,5.00,0.00,23.2,22.4,00.0,32.2,25.0,21.2,-001.3,0015.01,0010.20,0009.30
2021-11-02 16:12:00,,0831.5,5.00,0.00,23.2,22.4,00.0,32.2,25.0,21.2,-001.3,0014.37,0010.23,0009.29
2021-11-02 16:13:00,,0831.4,5.00,0.00,23.2,22.4,00.0,32.2,25.0,21.3,-001.0,0014.17,0010.22,0009.30
2021-11-02 16:14:00,,0831.4,5.00,0.00,23.2,22.4,00.0,32.2,25.0,21.4,-001.0,0013.99,0010.23,0009.30
2021-11-02 16:15:00,,0831.4,4.99,0.00,23.2,22.4,00.0,32.2,25.0,21.5,-001.3,0014.04,0010.22,0009.30
2021-11-02 16:16:00,,0831.5,5.02,0.00,23.2,22.4,00.0,32.2,25.0,21.4,-001.2,0014.10,0010.23,0009.29
2021-11-02 16:17:00,,0831.4,4.99,0.00,23.2,22.4,00.0,32.2,25.0,21.4,-001.3,0014.42,0010.23,0009.28
2021-11-02 16:18:00,,0831.5,5.00,0.00,23.2,22.4,00.0,32.2,25.0,21.5,-001.1,0014.48,0010.24,0009.29
2021-11-02 16:19:00,,0831.4,5.02,0.00,23.2,22.4,00.0,32.2,25.0,21.4,-000.9,0014.51,0010.20,0009.29
2021-11-02 16:20:00,,0831.4,5.00,0.00,23.2,22.4,00.0,32.2,25.0,21.4,-000.7,0014.84,0010.17,0009.31
2021-11-02 16:21:00,,0831.4,5.00,0.00,23.2,22.4,00.0,32.2,25.0,21.4,-000.9,0014.87,0010.17,0009.35
2021-11-02 16:22:00,,0831.4,5.00,0.00,23.2,22.4,00.0,32.2,25.0,21.4,-000.8,0014.81,0010.17,0009.38
2021-11-02 16:23:00,,0831.3,4.99,0.00,23.2,22.4,00.0,32.2,25.0,21.5,-000.7,0014.54,0010.16,0009.39
2021-11-02 16:24:00,,0831.3,5.01,0.00,23.2,22.4,00.0,32.2,25.0,21.5,-000.9,0014.70,0010.19,0009.39
2021-11-02 16:25:00,,0831.3,4.99,0.00,23.2,22.4,00.0,32.2,25.0,21.5,-001.0,0014.77,0010.20,0009.39
2021-11-02 16:26:00,,0831.2,4.99,0.00,23.2,22.4,00.0,32.2,25.0,21.5,-000.9,0015.48,0010.24,0009.41
2021-11-02 16:27:00,,0831.2,5.02,0.00,23.2,22.4,00.0,32.2,25.0,21.4,-001.1,0015.56,0010.25,0009.44
2021-11-02 16:28:00,,0831.2,5.00,0.00,23.2,22.4,00.0,32.2,25.0,21.4,-001.3,0015.08,0010.22,0009.45
2021-11-02 16:29:00,,0831.2,4.99,0.00,23.2,22.4,00.0,32.2,25.0,21.4,-001.4,0015.25,0010.24,0009.46
2021-11-02 16:30:00,,0831.2,5.00,0.00,23.2,22.4,00.0,32.2,25.0,21.4,-001.5,0015.25,0010.25,0009.48
2021-11-02 16:31:00,,0831.2,5.02,0.00,23.2,22.4,00.0,32.2,25.0,21.5,-001.7,0015.09,0010.28,0009.48
2021-11-02 16:32:00,,0831.2,4.99,0.00,23.2,22.4,00.0,32.2,25.0,21.5,-001.7,0015.23,0010.32,0009.47
2021-11-02 16:33:00,,0831.2,5.02,0.00,23.1,22.3,00.0,32.2,25.0,21.5,-001.9,0015.17,0010.30,0009.45
2021-11-02 16:34:00,,0831.2,4.99,0.00,23.1,22.3,00.0,32.2,24.9,21.5,-001.9,0015.11,0010.27,0009.43
2021-11-02 16:35:00,,0831.2,5.00,0.00,23.1,22.3,00.0,32.2,24.9,21.5,-001.7,0014.98,0010.24,0009.41
2021-11-02 16:36:00,,0831.2,5.00,0.00,23.1,22.3,00.0,32.2,24.9,21.5,-001.6,0014.70,0010.19,0009.40
2021-11-02 16:37:00,,0831.2,5.00,0.00,23.1,22.3,00.0,32.2,24.9,21.5,-001.6,0014.04,0010.17,0009.36
2021-11-02 16:38:00,,0831.2,5.00,0.00,23.1,22.3,00.0,32.2,25.0,21.5,-001.4,0014.00,0010.18,0009.36
2021-11-02 16:39:00,,0831.2,5.00,0.00,23.1,22.4,00.0,32.2,25.0,21.5,-001.2,0014.02,0010.18,0009.36
2021-11-02 16:40:00,,0831.2,5.00,0.00,23.1,22.4,00.0,32.2,25.0,21.5,-001.1,0013.84,0010.20,0009.38
2021-11-02 16:41:00,,0831.2,5.02,0.00,23.2,22.4,00.0,32.2,25.0,21.5,-001.1,0013.66,0010.25,0009.38
2021-11-02 16:42:00,,0831.2,4.99,0.00,23.2,22.4,00.0,32.2,25.0,21.5,-000.8,0013.87,0010.26,0009.40
2021-11-02 16:43:00,,0831.2,5.01,0.00,23.2,22.4,00.0,32.2,25.0,21.6,-000.9,0014.08,0010.26,0009.42
2021-11-02 16:44:00,,0831.2,4.99,0.00,23.2,22.4,00.0,32.2,25.0,21.6,-001.3,0014.39,0010.30,0009.45
2021-11-02 16:45:00,,0831.2,5.01,0.00,23.2,22.5,00.0,32.2,25.0,21.7,-001.5,0014.59,0010.39,0009.51
2021-11-02 16:46:00,,0831.2,4.99,0.00,23.2,22.5,00.0,32.2,25.1,21.7,-001.7,0014.64,0010.45,0009.58
2021-11-02 16:47:00,,0831.2,5.03,0.00,23.2,22.5,00.0,32.2,25.1,21.8,-001.7,0015.07,0010.54,0009.63
2021-11-02 16:48:00,,0831.2,4.98,0.00,23.2,22.5,00.0,32.2,25.1,21.8,-001.8,0016.07,0010.64,0009.70
2021-11-02 16:49:00,,0831.2,5.00,0.00,23.2,22.5,00.0,32.2,25.1,21.7,-001.7,0016.40,0010.71,0009.74
2021-11-02 16:50:00,,0831.2,5.01,0.00,23.3,22.5,00.0,32.2,25.1,21.8,-001.7,0016.71,0010.80,0009.76
2021-11-02 16:51:00,,0831.2,4.99,0.00,23.3,22.5,00.0,32.2,25.1,21.9,-001.9,0016.92,0010.87,0009.79
2021-11-02 16:52:00,,0831.2,5.00,0.00,23.3,22.5,00.0,32.2,25.1,21.9,-001.9,0017.54,0010.82,0009.79
2021-11-02 16:53:00,,0831.2,5.01,0.00,23.3,22.5,00.0,32.2,25.1,21.9,-002.0,0017.10,0010.82,0009.81
2021-11-02 16:54:00,,0831.2,4.98,0.00,23.3,22.5,00.0,32.3,25.1,21.8,-001.8,0016.88,0010.84,0009.83
2021-11-02 16:55:00,,0831.2,5.01,0.00,23.3,22.5,00.0,32.3,25.1,21.7,-001.5,0017.42,0010.84,0009.84
2021-11-02 16:56:00,,0831.2,5.00,0.00,23.3,22.5,00.0,32.3,25.1,21.6,-001.5,0017.67,0010.85,0009.83
2021-11-02 16:57:00,,0831.2,4.99,0.00,23.3,22.5,00.0,32.3,25.1,21.7,-001.4,0017.85,0010.87,0009.82
2021-11-02 16:58:00,,0831.2,5.01,0.00,23.3,22.5,00.0,32.3,25.1,21.7,-001.6,0017.65,0010.90,0009.82
2021-11-02 16:59:00,,0831.2,4.99,0.00,23.3,22.5,00.0,32.3,25.1,21.6,-001.6,0016.97,0010.87,0009.81
